Showing default

IRIDIUM 123, 42804

Orbit data source: Space-Track

IRIDIUM 123, 42804 is a payload satellite owned by Iridium (US) in LEO that was launched on Sun, 25 Jun 2017 UTC via an FALCON 9 launch vehicle from the Air Force Western Test Range (AFWTR). Payload-class satellites include a variety of spacecraft equipped with specific instruments for various scientific and technological missions. These include communications satellites like Starlink; space stations such as the ISS; scientific satellites like the Hubble; Earth observation satellites from companies like Planet Labs, Umbra, and HawkEye 360; GPS; miniature CubeSats for education and research; and military/defense satellites.

Loading next visibility...
Identifier
42804, 2017-039B
Orbit
LEO
Country
Flag of USUS
Related business
Manufacturer
OATK SSG Gilbert
Mission
Operational Commercial Communications
Bus & Motor
ELITEBUS, Unknown motor
Mass
860 kg wet, 700 kg dry
Launch date (UTC)
2017-06-25 (8 years ago)
Launch vehicle
FALCON 9
Launch site
Air Force Western Test Range (AFWTR)
Object type
Payload
Rocket body
Debris
Shape & HBR
Trap Box + 2 Pan, 4.8 m
Radar Cross Section
10.154 m², Large (>1 m²)

Expand to show TLE details & history
Last TLE update: 20 hours ago

TLE from 20 hours ago
0 IRIDIUM 123
1 42804U 17039B   25312.81331887  .00000196  00000-0  62880-4 0  9994
2 42804  86.3944  85.7626 0001803  89.3414 270.7989 14.34219135438368
Epoch: 2025-11-08T19:31Z
TLE epoch observation values (Epoch: 2025-11-08T19:31:10.750Z)
Latitude
0.00005°
Longitude
104.73027°
Altitude
780.696 km
Speed
7.464 km/s
True Right ascension
05h 43m 03s
True Declination
0° 00' 00"
Sunlit
Object was in full shadow at epoch
Visualization orbit readout
Latitude
Unknown
Longitude
Unknown
Altitude
Unknown
Speed
Unknown
Apparent Right ascension
Unknown
Apparent Declination
Unknown
Sunlit
N/A
Visualization observer readout
Local Sidereal Time
12:15:59
Azimuth
Unknown
Elevation
Unknown
Doppler factor
Unknown
Orbital elements
Apogee altitude
775.917 km
Perigee altitude
773.337 km
Semi-major axis
7,152.764 km
Eccentricity
0.00018
Inclination
86.3944°
RAAN
85.7626°
Arg. of periapsis
89.3414°
True anomaly
270.77824°
Mean anomaly
270.7989°
Eccentric anomaly
270.78857°
Mean motion
3.58783 °/min
Orbital period
100.34 mins
BSTAR
0.00006288
Loading maneuver chart data...
Computing Atmospheric mass density...
Loading historical data...
Loading historical data...
Loading historical data...
Loading historical data...
Loading historical data...
Loading historical data...
Loading historical data...

Documentation

Showing up to 5 results
|